Mitchell, SD

5:40 AM CST on December 13, 2019 (GMT -0600)
Mitchell Municipal

Weather History for KMHE - May, 2019

Change the Weather History Date:

Wednesday, May 15, 2019

  Actual Average Record
Temperature  
Mean Temperature 69 °F 59 °F  
Max Temperature 83 °F 71 °F 100 °F (1931)
Min Temperature 55 °F 48 °F 25 °F (1959)
Degree Days  
Heating Degree Days 0 7  
Month to date heating degree days 183 131  
Since 1 July heating degree days 7871 7131  
Cooling Degree Days 4 1  
Month to date cooling degree days 5 12  
Year to date cooling degree days 5 14  
Growing Degree Days 18 (Base 50)    
Moisture  
Dew Point 55 °F    
Average Humidity 63    
Maximum Humidity 86    
Minimum Humidity 40    
Precipitation  
Precipitation 0.00 in 0.07 in 1.25 in (1916)
Month to date precipitation 1.76 1.15  
Year to date precipitation 9.34 4.95  
Snow  
Snow 0.00 in - T in (1916)
Month to date snowfall 0.0  
Since 1 July snowfall 67.6  
Snow Depth 0.00 in    
Sea Level Pressure  
Sea Level Pressure 29.84 in    
Wind  
Wind Speed 12 mph (SE)    
Max Wind Speed 23 mph    
Max Gust Speed 31 mph    
Visibility 10 miles    
Events      
T = Trace of Precipitation, MM = Missing Value Source: NWS Daily Summary

Daily Weather History Graph

Daily Weather History Graph

Search for Another Location

Airport or City:

Astronomy

May. 15, 2019 Rise Set
Actual Time 6:06 AM CDT 8:50 PM CDT
Civil Twilight 5:33 AM CDT 9:24 PM CDT
Nautical Twilight 4:51 AM CDT 10:06 PM CDT
Astronomical Twilight 4:03 AM CDT 10:54 PM CDT
Moon 5:13 PM CDT (5/15) 4:44 AM CDT (5/15)
Length of Visible Light 15h 50m
Length of Day
14h 43m
Waxing Gibbous, 87% of the Moon is Illuminated
May 15
Waxing Gibbous
May 18
Full
May 26
Last Quarter
Jun 3
New
Jun 10
First Quarter

Hourly Weather History & Observations

Time (CDT) Temp. Heat Index Dew Point Humidity Pressure Visibility Wind Dir Wind Speed Gust Speed Precip Events Conditions
12:53 AM 60.1 °F - 55.0 °F 83% 29.91 in 10.0 mi SE 8.1 mph - N/A   Clear
1:53 AM 57.0 °F - 53.1 °F 87% 29.91 in 10.0 mi ENE 4.6 mph - N/A   Clear
2:53 AM 55.9 °F - 52.0 °F 87% 29.93 in 10.0 mi NNE 9.2 mph - N/A   Clear
3:53 AM 57.0 °F - 53.1 °F 87% 29.93 in 10.0 mi East 8.1 mph - N/A   Clear
4:53 AM 57.0 °F - 53.1 °F 87% 29.93 in 10.0 mi East 8.1 mph - N/A   Clear
5:53 AM 55.9 °F - 51.1 °F 84% 29.94 in 10.0 mi East 8.1 mph - N/A   Clear
6:53 AM 55.9 °F - 51.1 °F 84% 29.95 in 10.0 mi ESE 8.1 mph - N/A   Clear
7:53 AM 60.1 °F - 53.1 °F 78% 29.95 in 10.0 mi ESE 9.2 mph - N/A   Clear
8:53 AM 64.0 °F - 54.0 °F 70% 29.94 in 10.0 mi ESE 11.5 mph - N/A   Clear
9:53 AM 68.0 °F - 55.0 °F 63% 29.93 in 10.0 mi SE 11.5 mph - N/A   Clear
10:53 AM 72.0 °F - 57.0 °F 59% 29.92 in 10.0 mi SE 17.3 mph - N/A   Clear
11:53 AM 75.0 °F - 57.9 °F 55% 29.91 in 10.0 mi SSE 17.3 mph 23.0 mph N/A   Clear
12:53 PM 77.0 °F - 59.0 °F 54% 29.89 in 10.0 mi SSE 15.0 mph 24.2 mph N/A   Clear
1:53 PM 79.0 °F - 59.0 °F 50% 29.86 in 10.0 mi South 18.4 mph 28.8 mph N/A   Clear
2:53 PM 80.1 °F 80.2 °F 55.9 °F 43% 29.83 in 10.0 mi SSE 17.3 mph 31.1 mph N/A   Clear
3:53 PM 81.0 °F 81.1 °F 57.9 °F 45% 29.80 in 10.0 mi SSE 18.4 mph - N/A   Clear
4:53 PM 82.9 °F 82.1 °F 55.9 °F 39% 29.76 in 10.0 mi SSE 13.8 mph 23.0 mph N/A   Clear
5:53 PM 82.9 °F 82.0 °F 55.0 °F 38% 29.73 in 10.0 mi South 16.1 mph - N/A   Clear
6:53 PM 82.9 °F 82.1 °F 55.9 °F 39% 29.71 in 10.0 mi South 11.5 mph - N/A   Clear
7:53 PM 80.1 °F 80.4 °F 57.0 °F 45% 29.68 in 10.0 mi SSE 15.0 mph - N/A   Clear
8:53 PM 75.9 °F - 57.0 °F 52% 29.67 in 10.0 mi SSE 11.5 mph - N/A   Clear
9:53 PM 73.9 °F - 57.0 °F 55% 29.67 in 10.0 mi SSE 10.4 mph - N/A   Clear
10:53 PM 73.0 °F - 57.0 °F 57% 29.66 in 10.0 mi South 12.7 mph - N/A   Clear
11:53 PM 71.1 °F - 57.0 °F 61% 29.64 in 10.0 mi South 12.7 mph - N/A   Clear